Saint Charles, IL

12:07 PM CST on February 27, 2017 (GMT -0600)
Du Page

Weather History for KDPA - December, 2013

Change the Weather History Date:

Sunday, December 22, 2013

  Actual Average Record
Temperature  
Mean Temperature 29 °F 25 °F  
Max Temperature 33 °F 33 °F 53 °F (2006)
Min Temperature 24 °F 17 °F -10 °F (2000)
Degree Days  
Heating Degree Days 36 40  
Month to date heating degree days 929 805  
Since 1 July heating degree days 2365 2059  
Cooling Degree Days 0 0  
Month to date cooling degree days 0 0  
Year to date cooling degree days 745 814  
Moisture  
Dew Point 26 °F    
Average Humidity 88    
Maximum Humidity 100    
Minimum Humidity 80    
Precipitation  
Precipitation 0.11 in 0.06 in 0.86 in (2006)
Month to date precipitation 0.55 1.32  
Year to date precipitation 34.73 36.51  
Sea Level Pressure  
Sea Level Pressure 29.79 in    
Wind  
Wind Speed 10 mph (NNW)    
Max Wind Speed 21 mph    
Max Gust Speed 24 mph    
Visibility 7 miles    
Events Rain , Snow    
T = Trace of Precipitation, MM = Missing Value Source: NWS Daily Summary

Daily Weather History Graph

Daily Weather History Graph

Search for Another Location

Airport or City:

Trip Planner

Search our weather history database for the weather conditions in past years. The results will help you decide how hot, cold, wet, or windy it might be!

Date:

Astronomy

Dec. 22, 2013 Rise Set
Actual Time 7:18 AM CST 4:25 PM CST
Civil Twilight 6:46 AM CST 4:57 PM CST
Nautical Twilight 6:11 AM CST 5:32 PM CST
Astronomical Twilight 5:37 AM CST 6:06 PM CST
Moon 9:42 PM CST (12/22) 10:10 AM CST (12/22)
Length of Visible Light 10h 11m
Length of Day
9h 07m
Waning Gibbous, 76% of the Moon is Illuminated
Dec 22
Waning Gibbous
Dec 25
Last Quarter
Jan 1
New
Jan 7
First Quarter
Jan 15
Full

Hourly Weather History & Observations

Time (CST) Temp. Windchill Dew Point Humidity Pressure Visibility Wind Dir Wind Speed Gust Speed Precip Events Conditions
12:52 AM 33.1 °F 23.4 °F 30.9 °F 92% 29.64 in 4.0 mi NNE 13.8 mph - 0.01 in Rain Light Rain
1:52 AM 33.1 °F 23.0 °F 30.9 °F 92% 29.63 in 4.0 mi NNE 15.0 mph 23.0 mph 0.00 in Rain Light Rain
2:16 AM 33.8 °F 24.3 °F 30.2 °F 87% 29.61 in 4.0 mi NNE 13.8 mph 23.0 mph 0.01 in Rain Light Freezing Rain
2:46 AM 32.0 °F 21.6 °F 30.2 °F 93% 29.61 in 4.0 mi NNE 15.0 mph 24.2 mph 0.02 in Rain Light Freezing Rain
2:52 AM 32.0 °F 23.0 °F 30.0 °F 92% 29.64 in 4.0 mi NNE 11.5 mph - 0.02 in Rain Light Freezing Rain
3:04 AM 32.0 °F 21.6 °F 30.2 °F 93% 29.61 in 4.0 mi NNE 15.0 mph - 0.01 in Rain Light Freezing Rain
3:20 AM 32.0 °F 22.5 °F 30.2 °F 93% 29.60 in 4.0 mi NNE 12.7 mph - 0.01 in Rain Light Freezing Rain
3:52 AM 32.0 °F 21.2 °F 30.0 °F 92% 29.62 in 4.0 mi NNE 16.1 mph - 0.01 in Rain Light Freezing Rain
4:33 AM 32.0 °F 22.5 °F 30.2 °F 93% 29.59 in 4.0 mi NE 12.7 mph - 0.00 in Rain Light Freezing Rain
4:45 AM 32.0 °F 20.8 °F 30.2 °F 93% 29.59 in 8.0 mi ENE 17.3 mph 21.9 mph 0.00 in Rain Light Freezing Rain
4:52 AM 32.0 °F 22.1 °F 30.0 °F 92% 29.62 in 9.0 mi NE 13.8 mph 21.9 mph 0.00 in Rain Light Freezing Rain
5:04 AM 32.0 °F 20.8 °F 30.2 °F 93% 29.59 in 8.0 mi NE 17.3 mph 24.2 mph 0.00 in   Overcast
5:52 AM 32.0 °F - 30.0 °F 92% 29.68 in 10.0 mi Calm Calm - 0.00 in   Overcast
6:08 AM 32.0 °F 27.5 °F 28.4 °F 87% 29.68 in 2.0 mi North 4.6 mph - 0.03 in Snow Light Snow
6:16 AM 32.0 °F 26.4 °F 30.2 °F 93% 29.67 in 1.0 mi North 5.8 mph - 0.04 in Snow Light Snow
6:52 AM 32.0 °F 26.4 °F 30.9 °F 96% 29.69 in 1.0 mi North 5.8 mph - 0.06 in Snow Light Snow
6:58 AM 32.0 °F 27.5 °F 30.2 °F 93% 29.68 in 1.0 mi NNW 4.6 mph - 0.00 in Snow Light Snow
7:52 AM 30.9 °F 24.3 °F 30.0 °F 96% 29.72 in 1.0 mi NW 6.9 mph - 0.01 in Snow Light Snow
8:03 AM 30.2 °F 23.4 °F 30.2 °F 100% 29.70 in 1.0 mi NW 6.9 mph - 0.00 in Snow Light Snow
8:52 AM 30.9 °F 22.8 °F 28.9 °F 92% 29.76 in 1.0 mi NW 9.2 mph - 0.00 in   Overcast
9:02 AM 30.2 °F 21.9 °F 28.4 °F 93% 29.74 in 8.0 mi NW 9.2 mph - N/A   Overcast
9:31 AM 32.0 °F 22.5 °F 28.4 °F 87% 29.73 in 10.0 mi NNW 12.7 mph - N/A   Overcast
9:43 AM 30.2 °F 20.8 °F 28.4 °F 93% 29.75 in 9.0 mi NW 11.5 mph - N/A   Overcast
9:52 AM 30.0 °F 20.5 °F 28.0 °F 92% 29.78 in 8.0 mi NW 11.5 mph - N/A   Overcast
10:13 AM 28.4 °F 18.5 °F 26.6 °F 93% 29.77 in 9.0 mi NW 11.5 mph - N/A   Overcast
10:52 AM 28.9 °F 18.6 °F 26.1 °F 89% 29.81 in 10.0 mi NW 12.7 mph - N/A   Overcast
11:26 AM 28.4 °F 18.0 °F 24.8 °F 86% 29.78 in 10.0 mi NNW 12.7 mph - N/A   Overcast
11:35 AM 28.4 °F 18.0 °F 24.8 °F 86% 29.78 in 10.0 mi NNW 12.7 mph - N/A   Overcast
11:52 AM 28.9 °F 19.2 °F 25.0 °F 85% 29.81 in 10.0 mi NW 11.5 mph - N/A   Overcast
12:14 PM 30.2 °F 22.6 °F 24.8 °F 80% 29.79 in 10.0 mi NNW 8.1 mph - N/A   Overcast
12:22 PM 30.2 °F 22.6 °F 24.8 °F 80% 29.78 in 10.0 mi NNW 8.1 mph - N/A   Overcast
12:32 PM 30.2 °F 21.3 °F 24.8 °F 80% 29.79 in 10.0 mi NW 10.4 mph - N/A   Overcast
12:52 PM 30.0 °F 23.2 °F 25.0 °F 82% 29.83 in 10.0 mi NW 6.9 mph - N/A   Overcast
1:52 PM 30.0 °F 24.1 °F 25.0 °F 82% 29.87 in 10.0 mi WNW 5.8 mph - N/A   Overcast
2:52 PM 28.9 °F 20.4 °F 24.1 °F 82% 29.90 in 10.0 mi NW 9.2 mph - N/A   Overcast
3:52 PM 27.0 °F 16.7 °F 23.0 °F 85% 29.94 in 10.0 mi WNW 11.5 mph - N/A   Overcast
4:52 PM 26.1 °F 16.2 °F 21.9 °F 84% 29.98 in 10.0 mi NW 10.4 mph - N/A   Overcast
5:45 PM 26.6 °F 17.5 °F 21.2 °F 80% 29.97 in 10.0 mi NW 9.2 mph - N/A   Overcast
5:52 PM 26.1 °F 16.8 °F 21.0 °F 81% 30.01 in 10.0 mi WNW 9.2 mph - N/A   Overcast
6:05 PM 24.8 °F 16.1 °F 21.2 °F 86% 29.98 in 10.0 mi NW 8.1 mph - N/A   Overcast
6:52 PM 25.0 °F 14.2 °F 21.0 °F 85% 30.02 in 10.0 mi NW 11.5 mph - N/A   Overcast
7:52 PM 25.0 °F 13.6 °F 19.9 °F 81% 30.06 in 10.0 mi NW 12.7 mph - N/A   Overcast
8:35 PM 24.8 °F 15.3 °F 19.4 °F 80% 30.04 in 7.0 mi NW 9.2 mph - 0.00 in Snow Light Snow
8:52 PM 24.1 °F 13.7 °F 19.9 °F 84% 30.07 in 7.0 mi WNW 10.4 mph - 0.00 in Snow Light Snow
9:52 PM 24.1 °F 15.2 °F 19.9 °F 84% 30.09 in 5.0 mi WNW 8.1 mph - 0.00 in Snow Light Snow
10:52 PM 24.1 °F 15.2 °F 19.9 °F 84% 30.12 in 10.0 mi WNW 8.1 mph - 0.00 in   Overcast
11:52 PM 25.0 °F 19.3 °F 21.0 °F 85% 30.14 in 8.0 mi WNW 4.6 mph - 0.00 in Snow Light Snow